Hourly Data Report for July 25, 2021

PRINCE RUPERT
BRITISH COLUMBIA
Current Station Operator: NAVCAN

54°17'10.000" N
130°26'41.000" W
35.40 m
1066482
71022
YPR

Download Data

Hourly Data (July 2021)
Hourly Data Report for July 25, 2021
TIME
LST
Temp Definition
°C
Dew Point Definition
°C
Rel Hum Definition
%
Precip. Amount Definition
mm

Wind Dir Definition
10's deg

Wind Spd Definition
km/h
Visibility Definition
km
Stn Press Definition
kPa
Hmdx Definition


Wind Chill Definition


Weather Definition


00:00 13.1 11.8 92 0.0 5 8 16.1 101.51     LegendNANA
01:00 12.6 11.8 95 0.0 LegendMM 4 16.1 101.51     LegendNANA
02:00 12.5 11.7 95 0.0 13 8 16.1 101.49     LegendNANA
03:00 12.1 11.5 96 0.0 LegendMM 4 16.1 101.49     LegendNANA
04:00 12.1 11.5 96 0.0 15 8 16.1 101.49     LegendNANA
05:00 11.8 11.3 97 0.0 15 8 16.1 101.49     LegendNANA
06:00 12.0 11.5 97 0.0 14 5 16.1 101.48     LegendNANA
07:00 13.2 11.9 92 0.0 13 5 16.1 101.49     LegendNANA
08:00 13.9 12.3 90 0.0 LegendMM 4 16.1 101.48     LegendNANA
09:00 14.4 12.2 87 0.0 LegendMM 4 16.1 101.48     LegendNANA
10:00 15.4 11.4 77 0.0 21 8 16.1 101.46     LegendNANA
11:00 15.8 11.4 75 0.0 23 8 16.1 101.45     LegendNANA
12:00 15.1 11.6 79 0.0 24 8 16.1 101.45     LegendNANA
13:00 15.7 11.4 75 0.0 22 5 16.1 101.43     LegendNANA
14:00 16.1 11.0 72 0.0 23 8 16.1 101.42     LegendNANA
15:00 15.3 11.5 78 0.0 LegendMM 4 16.1 101.43     LegendNANA
16:00 15.6 12.0 79 0.0 LegendMM 4 16.1 101.39     LegendNANA
17:00 14.9 12.0 82 0.0 30 5 16.1 101.35     LegendNANA
18:00 14.8 12.7 87 0.0 30 5 16.1 101.31     LegendNANA
19:00 14.2 11.9 86 0.0 33 8 16.1 101.27     LegendNANA
20:00 14.1 12.8 92 0.0 2 5 16.1 101.21     LegendNANA
21:00 13.6 12.7 94 0.0 36 5 16.1 101.17     Rain
22:00 13.4 12.5 94 0.0 35 5 16.1 101.14     LegendNANA
23:00 13.7 12.9 95 1.0 9 5 12.9 101.14     Rain

Notes on Data Quality.

Legend

  • E = Estimated
  • M = Missing
  • NA = Not Available*
  • [empty] = Indicates an unobserved value
Date modified: